Location: Saint Mary
(48.7436°N, 113.4291°W)
Time: 16:18:25
(UTC+00:00)

N. Korean satellite - Pass Details

Date: 02 February 2022
Orbit: 437 x 477 km, 97.3° (Epoch: 27 May)

Event Time Altitude Azimuth Distance (km) Brightness Sun altitude
Rises 11:44:18 0° 30° (NNE) 2,608 10.8 -32.7°
Reaches altitude 10° 11:47:15 10° 56° (NE) 1,712 10.1 -32.2°
Maximum altitude 11:49:17 14° 90° (E) 1,458 9.7 -31.9°
Drops below altitude 10° 11:51:18 10° 123° (ESE) 1,692 9.8 -31.5°
Sets 11:54:10 0° 149° (SSE) 2,555 10.5 -31.1°
